• Join FlightAware (Why Join?)
  • Login
  • US Flag 
01:51PM EDT


 

Airport Tracker/Info


-or-


 

Live Flight TrackerFlight Track Log ✈ SWA1435 ✈ 24-Apr-2013 ✈ KDAL - KSTL

Flight Track Log - Related Links

Times and Time Zones

All times are in EDT time to prevent confusion due to time zone crossing. See the SWA1435 flight status page for this flight to view local times or setup timezone preferences in your user account.

Time Position Orientation Groundspeed Altitude Reporting Facility
EDT Latitude Longitude Course Direction KTS MPH feet Rate Location/Type
07:14AM 32.8500 -96.8667 308° West 147 169 1,800  Level Dallas / Fort Worth TRACON
07:15AM 32.8833 -96.9167 308° West 197 227 4,500 3,360 Climbing Dallas / Fort Worth TRACON
07:16AM 32.9167 -96.9500 320° Northwest 214 246 7,600 3,360 Climbing Dallas / Fort Worth TRACON
07:18AM 33.0850 -96.9300 North 282 325 14,800 3,000 Climbing Fort Worth Center
07:19AM 33.1622 -96.9072 14° North 305 351 17,400 2,100 Climbing Fort Worth Center
07:20AM 33.2686 -96.8767 14° North 341 392 19,100 2,160 Climbing Fort Worth Center
07:21AM 33.3728 -96.8464 14° North 372 428 21,800 2,340 Climbing Fort Worth Center
07:22AM 33.4811 -96.8058 17° North 382 440 23,800 1,980 Climbing Fort Worth Center
07:23AM 33.5747 -96.7453 28° Northeast 408 470 25,800 1,980 Climbing Fort Worth Center
07:24AM 33.6828 -96.6769 28° Northeast 428 493 27,800 1,920 Climbing Fort Worth Center
07:25AM 33.7889 -96.6061 29° Northeast 433 498 29,700 1,500 Climbing Fort Worth Center
07:26AM 33.9011 -96.5350 28° Northeast 438 504 30,900 1,320 Climbing Fort Worth Center
07:27AM 34.0153 -96.4639 27° Northeast 456 525 32,400 1,560 Climbing Fort Worth Center
07:28AM 34.1192 -96.3850 32° Northeast 465 535 34,100 1,800 Climbing Fort Worth Center
07:29AM 34.2308 -96.2931 34° Northeast 463 533 36,000 1,440 Climbing Fort Worth Center
07:30AM 34.3386 -96.2011 35° Northeast 468 539 37,000 480 Climbing Fort Worth Center
07:31AM 34.4503 -96.1117 33° Northeast 468 539 37,000  Level Fort Worth Center
07:32AM 34.5600 -96.0217 34° Northeast 468 539 37,000  Level Fort Worth Center
07:33AM 34.6717 -95.9264 35° Northeast 473 544 37,000  Level Fort Worth Center
07:34AM 34.7853 -95.8333 34° Northeast 483 556 37,000  Level Fort Worth Center
07:35AM 34.9008 -95.7375 34° Northeast 490 564 37,000  Level Fort Worth Center
07:36AM 35.0100 -95.6339 38° Northeast 496 571 37,000  Level Fort Worth Center
07:37AM 35.1208 -95.5250 39° Northeast 496 571 37,000  Level Fort Worth Center
07:38AM 35.2969 -95.3594 37° Northeast 504 580 37,000  Level Kansas City Center
07:39AM 35.3597 -95.3036 36° Northeast 490 564 37,000  Level Memphis Center
07:40AM 35.4706 -95.1956 38° Northeast 501 577 37,000  Level Memphis Center
07:41AM 35.5808 -95.0922 37° Northeast 501 577 37,000  Level Memphis Center
07:42AM 35.6911 -94.9836 39° Northeast 506 582 37,000  Level Memphis Center
07:43AM 35.8014 -94.8769 38° Northeast 506 582 37,000  Level Memphis Center
07:44AM 35.9117 -94.7678 39° Northeast 506 582 37,000  Level Memphis Center
07:45AM 36.0217 -94.6633 38° Northeast 506 582 37,000  Level Memphis Center
07:46AM 36.1339 -94.5561 38° Northeast 506 582 37,000  Level Memphis Center
07:48AM 36.3133 -94.3772 39° Northeast 510 587 37,000  Level Kansas City Center
07:49AM 36.4256 -94.2675 38° Northeast 511 588 37,000  Level Kansas City Center
07:50AM 36.5375 -94.1564 39° Northeast 514 592 37,000  Level Kansas City Center
07:51AM 36.6489 -94.0464 38° Northeast 512 589 37,000  Level Kansas City Center
07:52AM 36.7614 -93.9342 39° Northeast 516 594 37,000  Level Kansas City Center
07:53AM 36.8753 -93.8228 38° Northeast 519 597 37,000  Level Kansas City Center
07:54AM 36.9889 -93.7058 39° Northeast 516 594 37,000  Level Kansas City Center
07:55AM 37.1028 -93.5919 39° Northeast 520 598 37,000  Level Kansas City Center
07:56AM 37.2156 -93.4781 39° Northeast 520 598 37,000  Level Kansas City Center
07:57AM 37.3297 -93.3628 39° Northeast 522 601 37,000  Level Kansas City Center
07:58AM 37.4403 -93.2436 41° Northeast 521 600 37,000  Level Kansas City Center
07:59AM 37.5433 -93.1186 44° Northeast 515 593 37,000  Level Kansas City Center
08:00AM 37.6489 -92.9950 43° Northeast 515 593 37,000  Level Kansas City Center
08:01AM 37.7789 -92.8411 43° Northeast 526 605 37,000  Level Kansas City Center
08:02AM 37.8808 -92.7211 43° Northeast 530 610 37,000 -240 Level Kansas City Center
08:03AM 37.9697 -92.5728 53° Northeast 532 612 36,600 -660 Descending Kansas City Center
08:04AM 38.0522 -92.4178 56° Northeast 532 612 35,700 -960 Descending Kansas City Center
08:05AM 38.1367 -92.2642 55° Northeast 532 612 34,700 -1,020 Descending Kansas City Center
08:06AM 38.2153 -92.1153 56° Northeast 528 608 33,700 -2,340 Descending Kansas City Center
08:07AM 38.3125 -91.9303 56° Northeast 522 601 30,000 -3,180 Descending Kansas City Center
08:08AM 38.3956 -91.7750 56° Northeast 525 604 27,200 -2,640 Descending Kansas City Center
08:09AM 38.4767 -91.6192 56° Northeast 524 603 24,600 -2,580 Descending Kansas City Center
08:10AM 38.5544 -91.4714 56° Northeast 511 588 22,000 -2,640 Descending Kansas City Center
08:11AM 38.6381 -91.2561 64° Northeast 475 547 19,100 -2,580 Descending FAA TRACON SMA TRACON (SMA)
08:11AM 38.6597 -91.2147 56° Northeast 464 534 18,400 -2,100 Descending FAA TRACON SMA TRACON (SMA)
08:12AM 38.6800 -91.1731 58° Northeast 452 520 17,700 -2,400 Descending FAA TRACON SMA TRACON (SMA)
08:12AM 38.6939 -91.1169 72° East 435 501 16,800 -2,400 Descending FAA TRACON SMA TRACON (SMA)
08:12AM 38.6939 -91.0717 90° East 417 480 16,100 -2,100 Descending FAA TRACON SMA TRACON (SMA)
08:13AM 38.6953 -91.0278 88° East 404 465 15,400 -2,520 Descending FAA TRACON SMA TRACON (SMA)
08:13AM 38.6969 -90.9733 88° East 398 458 14,500 -2,400 Descending FAA TRACON SMA TRACON (SMA)
08:13AM 38.6972 -90.9300 90° East 395 455 13,800 -2,100 Descending FAA TRACON SMA TRACON (SMA)
08:14AM 38.6967 -90.8875 91° East 391 450 13,100 -2,280 Descending FAA TRACON SMA TRACON (SMA)
08:14AM 38.6986 -90.8356 87° East 383 441 12,300 -2,280 Descending FAA TRACON SMA TRACON (SMA)
08:14AM 38.6997 -90.7942 88° East 378 435 11,600 -1,980 Descending FAA TRACON SMA TRACON (SMA)
08:15AM 38.6997 -90.7539 90° East 371 427 11,000 -1,920 Descending FAA TRACON SMA TRACON (SMA)
08:15AM 38.7014 -90.7044 88° East 363 418 10,300 -1,380 Descending FAA TRACON SMA TRACON (SMA)
08:15AM 38.7017 -90.6669 89° East 347 399 10,100 -840 Descending FAA TRACON SMA TRACON (SMA)
08:16AM 38.7044 -90.5894 87° East 309 356 9,500 -1,020 Descending FAA TRACON SMA TRACON (SMA)
08:16AM 38.7061 -90.5561 86° East 304 350 9,100 -1,200 Descending FAA TRACON SMA TRACON (SMA)
08:17AM 38.7072 -90.5236 87° East 301 346 8,700 -1,500 Descending FAA TRACON SMA TRACON (SMA)
08:17AM 38.7078 -90.4833 89° East 295 339 8,100 -1,440 Descending FAA TRACON SMA TRACON (SMA)
08:17AM 38.7003 -90.4536 108° East 292 336 7,800 -900 Descending FAA TRACON SMA TRACON (SMA)
08:18AM 38.6872 -90.4283 123° Southeast 279 321 7,500 -780 Descending FAA TRACON SMA TRACON (SMA)
08:18AM 38.6719 -90.3969 122° Southeast 267 307 7,300 -780 Descending FAA TRACON SMA TRACON (SMA)
08:18AM 38.6603 -90.3739 123° Southeast 256 295 7,000 -900 Descending FAA TRACON SMA TRACON (SMA)
08:19AM 38.6492 -90.3506 121° Southeast 250 288 6,700 -900 Descending FAA TRACON SMA TRACON (SMA)
08:19AM 38.6358 -90.3225 121° Southeast 241 277 6,400 -900 Descending FAA TRACON SMA TRACON (SMA)
08:19AM 38.6250 -90.3006 122° Southeast 237 273 6,100 -1,200 Descending FAA TRACON SMA TRACON (SMA)
08:20AM 38.6119 -90.2728 121° Southeast 234 269 5,600 -1,500 Descending FAA TRACON SMA TRACON (SMA)
08:20AM 38.6011 -90.2511 123° Southeast 238 274 5,100 -1,200 Descending FAA TRACON SMA TRACON (SMA)
08:21AM 38.5706 -90.1539 112° Southeast 244 281 3,600 -900 Descending FAA TRACON SMA TRACON (SMA)
08:22AM 38.5881 -90.1358 39° Northeast 223 257 3,600  Level FAA TRACON SMA TRACON (SMA)
08:22AM 38.6019 -90.1225 37° Northeast 206 237 3,600  Level FAA TRACON SMA TRACON (SMA)
08:22AM 38.6169 -90.1086 36° Northeast 209 241 3,600 -300 Level FAA TRACON SMA TRACON (SMA)
08:23AM 38.6367 -90.1019 15° North 211 243 3,400 -780 Descending FAA TRACON SMA TRACON (SMA)
08:23AM 38.6486 -90.1147 320° Northwest 201 231 3,100 -900 Descending FAA TRACON SMA TRACON (SMA)
08:23AM 38.6578 -90.1308 306° West 184 212 2,800 -900 Descending FAA TRACON SMA TRACON (SMA)
08:24AM 38.6675 -90.1506 302° West 172 198 2,500 -600 Descending FAA TRACON SMA TRACON (SMA)
08:24AM 38.6744 -90.1650 302° West 160 184 2,400  Descending FAA TRACON SMA TRACON (SMA)
08:24AM 38.6817 -90.1792 303° West 155 178 2,500 -180 Climbing FAA TRACON SMA TRACON (SMA)
08:25AM 38.6900 -90.1967 301° West 149 171 2,300 -780 Descending FAA TRACON SMA TRACON (SMA)
08:25AM 38.6958 -90.2089 301° West 136 157 2,000 -780 Descending FAA TRACON SMA TRACON (SMA)
08:25AM 38.7014 -90.2192 305° West 119 137 1,800 -600 Descending FAA TRACON SMA TRACON (SMA)
08:26AM 38.7075 -90.2314 303° West 106 122 1,600 -600 Descending FAA TRACON SMA TRACON (SMA)
08:26AM 38.7125 -90.2414 303° West 108 124 1,400 -600 Descending FAA TRACON SMA TRACON (SMA)
08:26AM 38.7178 -90.2519 303° West 111 128 1,200 -600 Descending FAA TRACON SMA TRACON (SMA)
08:27AM 38.7244 -90.2653 303° West 115 132 1,000 -600 Descending FAA TRACON SMA TRACON (SMA)
08:27AM 38.7297 -90.2764 301° West 119 137 800 -600 Descending FAA TRACON SMA TRACON (SMA)
08:27AM 38.7325 -90.2819 303° West 120 138 600 -600 Descending FAA TRACON SMA TRACON (SMA)